JCSAT-18 (KACIFIC 1)

Last updated on Tue Sep 16 2025 00:02:50 GMT+0000 (Coordinated Universal Time)

1 44868U 19091A 25257.36518023 -.00000215 00000+0 00000+0 0 9996 2 44868 0.0468 325.1193 0001241 262.1846 47.7454 1.00264012 21247
UTC large
Height (km)
Speed (km/s)
/
Latitude / Longitude
Inclination (degrees)
Orbital Period (minutes)
Azimuth
Elevation
Range (km)
Doppler Factor

Next 0 passes for location: London (51.5072 / 0.1276)

Sorry there are no passes over London.